Baton Rouge, LA

10:19 PM CDT on October 20, 2019 (GMT -0500)
Baton Rouge Metro-Ryan

Weather History for KBTR - August, 2019

Change the Weather History Date:

Thursday, August 15, 2019

  Actual Average Record
Temperature  
Mean Temperature 86 °F 83 °F  
Max Temperature 95 °F 93 °F 98 °F (1951)
Min Temperature 76 °F 74 °F 58 °F (2004)
Degree Days  
Heating Degree Days 0 0  
Month to date heating degree days 0 0  
Since 1 June heating degree days 0 0  
Since 1 July heating degree days 0 0  
Cooling Degree Days 21 18  
Month to date cooling degree days 309 270  
Year to date cooling degree days 2043 1875  
Since 1 June cooling degree days 1372 1310  
Growing Degree Days 36 (Base 50)    
Moisture  
Dew Point 75 °F    
Average Humidity 74    
Maximum Humidity 94    
Minimum Humidity 53    
Precipitation  
Precipitation T in 0.19 in 2.82 in (1985)
Month to date precipitation 2.56 2.90  
Year to date precipitation 43.98 38.79  
Snow  
Snow 0.00 in - - ()
Month to date snowfall 0.0  
Since 1 June snowfall 0.0  
Since 1 July snowfall 0.0  
Snow Depth 0.00 in    
Sea Level Pressure  
Sea Level Pressure 29.95 in    
Wind  
Wind Speed 3 mph (NE)    
Max Wind Speed 15 mph    
Max Gust Speed 16 mph    
Visibility 8 miles    
Events      
T = Trace of Precipitation, MM = Missing Value Source: NWS Daily Summary

Daily Weather History Graph

Daily Weather History Graph

Search for Another Location

Airport or City:

Astronomy

Aug. 15, 2019 Rise Set
Actual Time 6:31 AM CDT 7:46 PM CDT
Civil Twilight 6:05 AM CDT 8:11 PM CDT
Nautical Twilight 5:35 AM CDT 8:41 PM CDT
Astronomical Twilight 5:04 AM CDT 9:13 PM CDT
Moon 8:13 PM CDT (8/15) 6:29 AM CDT (8/15)
Length of Visible Light 14h 06m
Length of Day
13h 15m
Full, 100% of the Moon is Illuminated
Aug 15
Full
Aug 23
Last Quarter
Aug 30
New
Sep 5
First Quarter
Sep 13
Full

Hourly Weather History & Observations

Time (CDT) Temp. Heat Index Dew Point Humidity Pressure Visibility Wind Dir Wind Speed Gust Speed Precip Events Conditions
12:53 AM 78.1 °F - 75.9 °F 93% 29.94 in 6.0 mi WNW 4.6 mph - N/A   Clear
1:41 AM 77.0 °F - 75.0 °F 94% 29.93 in 5.0 mi ENE 4.6 mph - N/A   Scattered Clouds
1:49 AM 77.0 °F - 75.2 °F 94% 29.93 in 4.0 mi East 4.6 mph - N/A   Mostly Cloudy
1:53 AM 77.0 °F - 75.0 °F 94% 29.93 in 4.0 mi ENE 4.6 mph - N/A   Mostly Cloudy
2:03 AM 77.0 °F - 75.0 °F 94% 29.93 in 1.8 mi North 3.5 mph - N/A   Overcast
2:23 AM 77.0 °F - 75.0 °F 94% 29.93 in 0.8 mi North 4.6 mph - N/A   Mist
2:53 AM 77.0 °F - 75.0 °F 94% 29.94 in 1.0 mi NNW 4.6 mph - N/A   Mist
3:40 AM 77.0 °F - 75.0 °F 94% 29.95 in 2.5 mi Calm Calm - N/A   Overcast
3:53 AM 77.0 °F - 75.0 °F 94% 29.95 in 4.0 mi Calm Calm - N/A   Mostly Cloudy
4:53 AM 77.0 °F - 75.0 °F 94% 29.95 in 4.0 mi Calm Calm - N/A   Scattered Clouds
5:53 AM 77.0 °F - 75.0 °F 94% 29.95 in 5.0 mi Calm Calm - N/A   Partly Cloudy
6:53 AM 77.0 °F - 75.0 °F 94% 29.96 in 10.0 mi Calm Calm - N/A   Scattered Clouds
7:53 AM 78.1 °F - 75.9 °F 93% 29.98 in 10.0 mi Calm Calm - N/A   Clear
8:53 AM 81.0 °F 87.3 °F 75.9 °F 85% 29.98 in 10.0 mi Calm Calm - N/A   Clear
9:53 AM 84.9 °F 94.1 °F 75.9 °F 74% 29.97 in 10.0 mi NE 5.8 mph - N/A   Clear
10:53 AM 89.1 °F 100.2 °F 75.9 °F 65% 29.98 in 10.0 mi ENE 4.6 mph - N/A   Clear
11:53 AM 91.0 °F 101.6 °F 75.0 °F 59% 29.97 in 10.0 mi East 8.1 mph - N/A   Scattered Clouds
12:53 PM 91.9 °F 103.2 °F 75.0 °F 58% 29.96 in 10.0 mi NNE 5.8 mph - N/A   Mostly Cloudy
1:00 PM 93.0 °F 105.3 °F 75.9 °F 57% 29.96 in 10.0 mi ENE 4.6 mph - N/A   Mostly Cloudy
1:53 PM 93.9 °F 105.4 °F 75.0 °F 54% 29.94 in 10.0 mi Variable 3.5 mph - N/A   Mostly Cloudy
2:53 PM 95.0 °F 106.7 °F 75.0 °F 52% 29.92 in 10.0 mi NNE 10.4 mph - N/A   Mostly Cloudy
4:53 PM 91.0 °F 102.9 °F 75.9 °F 61% 29.91 in 10.0 mi NE 4.6 mph - 0.00 in   Clear
5:53 PM 84.9 °F 93.3 °F 75.0 °F 72% 29.93 in 10.0 mi SW 10.4 mph - N/A   Mostly Cloudy
6:53 PM 82.9 °F 88.8 °F 73.0 °F 72% 29.94 in 10.0 mi South 5.8 mph - N/A   Clear
7:53 PM 81.0 °F 86.2 °F 73.9 °F 79% 29.93 in 10.0 mi WNW 3.5 mph - N/A   Clear
8:53 PM 80.1 °F 84.5 °F 73.9 °F 81% 29.94 in 10.0 mi Calm Calm - N/A   Clear
9:53 PM 79.0 °F - 73.9 °F 84% 29.95 in 10.0 mi SW 3.5 mph - N/A   Clear
10:53 PM 79.0 °F - 73.9 °F 84% 29.96 in 10.0 mi Calm Calm - N/A   Clear
11:53 PM 78.1 °F - 75.0 °F 90% 29.95 in 10.0 mi Calm Calm - N/A   Clear